Tracking 17753 objects as of 28-June-2016
HD Live streaming from Space Station
objects crossing your sky now

INTELSAT 2-F4

Track INTELSAT 2-F4 now!
INTELSAT 2-F4 is classified as:


NORAD ID: 2969
Int'l Code: 1967-094A
Perigee: 35,723.2 km
Apogee: 35,868.2 km
Inclination: 4.5 °
Period: 1,436.2 minutes
Semi major axis: 42166 km
RCS: 2.5118 m2 (large)
Launch date: September 28, 1967
Source: International Telecommunications Satellite Organization (ITSO)
Launch site: AIR FORCE EASTERN TEST RANGE (AFETR)
Your satellite tracking list
Your tracking list is empty





NASA's NSSDC Master Catalog

Two Line Element Set (TLE):
1 02969U 67094A   16179.16330256 -.00000234  00000-0  00000+0 0  9991
2 02969   4.4985 300.1557 0017187 220.2616 142.1980  1.00264881 80274
Source of the keplerian elements: AFSPC

N2YO: 882